Regional Weather Roundup
Issued by NWS

Home | Current Version | Previous Version | Graphics & Text | Print | Product List | Glossary On
Versions: 1 2 3 4 5 6 7 8 9 10 11 12 13 14 15 16 17 18 19 20 21 22 23 24 25 26 27 28 29 30 31 32 33 34 35 36 37 38 39 40 41 42 43 44 45 46 47 48 49 50
000
ASUS43 KIND 221309
RWRIN

WEATHER ROUNDUP FOR INDIANA
NATIONAL WEATHER SERVICE INDIANAPOLIS IN
900 AM EDT FRI AUG 22 2014

NOTE: "FAIR" INDICATES FEW OR NO CLOUDS BELOW 12,000 FEET WITH NO
SIGNIFICANT WEATHER AND/OR OBSTRUCTIONS TO VISIBILITY.

* - STATION DOES NOT REPORT WEATHER SUCH AS PRECIPITATION OR FOG.

+ - STATION NOT QUALITY CONTROLLED BY THE NATIONAL WEATHER SERVICE.
    USE DATA WITH CAUTION...ESPECIALLY DEWPOINT AND RELATIVE
    HUMIDITY OBSERVATIONS.

INZ001>003-010>013-019-020-221400-
NORTHWEST INDIANA

CITY           SKY/WX    TMP DP  RH WIND       PRES   REMARKS
GARY /AIRPORT/ PTSUNNY   75  73  94 SE8       29.94F
KNOX *+        CLOUDY    71  68  92 S3        29.97R
LA PORTE +     CLOUDY    71  71 100 S5        29.98R
MICHIGAN CITY+ MOSUNNY   73  73 100 CALM      29.96S
MONTICELLO +   RAIN      72  71  99 CALM      29.98R
RENSSELAER +   CLOUDY    72  72 100 S6        29.98F
VALPARAISO     PTSUNNY   73  71  93 S7        29.97R

$$

LMZ046-743>745-221400-
SOUTHERN LAKE MICHIGAN

STATION/POSITION TIME  TEMP WIND        PRES
                       AIR  DIR/SP/G
                 (UTC) (F)  (DEG/KT/KT) (MB)
MICHIGAN CITY    1300   73  100/  4/  6   N/A

$$

INZ004-005-014>016-021>024-221400-
NORTH CENTRAL INDIANA

CITY           SKY/WX    TMP DP  RH WIND       PRES   REMARKS
GOSHEN         CLOUDY    74  71  91 S7        29.98R
LOGANSPORT +   CLOUDY    70  68  94 SW9       29.99R
PERU/GRISSOM   LGT RAIN  72  72 100 SW9       29.99F
ROCHESTER +    CLOUDY    73  73 100 S7        30.00R
SOUTH BEND     PTSUNNY   72  69  90 S8        29.97S

$$

INZ006>009-017-018-025>027-221400-
NORTHEAST INDIANA

CITY           SKY/WX    TMP DP  RH WIND       PRES   REMARKS
ANGOLA *+      CLOUDY    72  63  73 S6        29.99R
AUBURN +       CLOUDY    72  68  88 SW3       30.00S
FORT WAYNE     CLOUDY    71  69  93 SW13      30.01R
HUNTINGTON +   DRIZZLE   70  69  97 S3        29.99F

$$

INZ028-029-035-036-043>045-051>053-221400-
WEST CENTRAL INDIANA

CITY           SKY/WX    TMP DP  RH WIND       PRES   REMARKS
GREENCASTLE +  CLOUDY    73  72  94 CALM      30.02R
LAFAYETTE      LGT RAIN  71  71 100 SW8       30.01R
TERRE HAUTE    CLOUDY    76  72  87 NW5       30.00R

$$

INZ030>032-037>040-046>048-054>057-064-065-221400-
CENTRAL INDIANA

CITY           SKY/WX    TMP DP  RH WIND       PRES   REMARKS
ANDERSON       RAIN      70  70 100 SE6       30.05
CP ATTERBURY + CLOUDY    73  72  94 CALM      30.02R
COLUMBUS       PTSUNNY   73  73 100 CALM      30.02R
FRANKFORT +    LGT RAIN N/A N/A N/A N8        30.03R
INDIANAPOLIS   LGT RAIN  76  72  87 NE7       30.01R
-EAGLE CREEK   LGT RAIN  73  70  90 NE5       30.02R
KOKOMO *+      CLOUDY    70  68  94 S6        30.01S
MARION +       RAIN      69  68  98 S7        30.02F
MT COMFORT *+  CLOUDY    73 N/A N/A N5        30.03R
SHELBYVILLE    LGT RAIN  75  32  20 E3        30.01R
ZIONSVILLE +   RAIN      72  68  88 NE5       30.04R

$$

INZ033-034-041-042-049-050-058-059-221400-
EAST CENTRAL INDIANA

CITY           SKY/WX    TMP DP  RH WIND       PRES   REMARKS
MUNCIE         LGT RAIN  70  68  93 SE5       30.04R

$$

INZ060-061-067>069-081>083-085>088-221400-
SOUTHWEST INDIANA

CITY           SKY/WX    TMP DP  RH WIND       PRES   REMARKS
EVANSVILLE     PTSUNNY   79  73  82 SW6       30.02R
WASHINGTON +   CLOUDY    78  74  88 W8        30.00R

$$

INZ062-063-066-070>080-084-089>092-221400-
SOUTH CENTRAL AND SOUTHEAST INDIANA

CITY           SKY/WX    TMP DP  RH WIND       PRES   REMARKS
BLOOMINGTON    CLOUDY    77  72  84 W7        30.01R
SEYMOUR +      CLOUDY    72  63  73 SW5       30.00

$$




USA.gov is the U.S. government's official web portal to all federal, state and local government web resources and services.